QPF
0.00 0.00 0.00 0.00 0.00 0.00 0.00 0.00 0.00 0.00 0.00 0.00 0.00 0.00 0.00 0.00 0.00 0.00 0.00 0.00 0.00 0.00 0.00 0.00 0.00 0.00 0.00 0.00 0.00 0.00 0.00 0.00 0.00 0.00 0.00 0.00 0.02 0.06 0.07 0.20 0.25 0.21 0.07 0.00
0.00 0.00 0.00 0.00 0.00 0.00 0.00 0.00 0.00 0.00 0.00 0.00 0.00 0.00 0.00 0.00 0.00 0.00 0.00 0.00 0.00 0.00 0.00 0.00 0.00 0.00 0.00 0.00 0.00 0.00 0.00 0.00 0.00 0.00 0.00 0.00 0.00 0.05 0.05 0.07 0.21 0.28 0.15 0.03
0.00 0.00 0.00 0.00 0.00 0.00 0.00 0.00 0.00 0.00 0.00 0.00 0.00 0.00 0.00 0.00 0.00 0.00 0.00 0.00 0.00 0.00 0.00 0.00 0.00 0.00 0.00 0.00 0.00 0.00 0.00 0.00 0.00 0.00 0.00 0.00 0.00 0.00 0.04 0.10 0.08 0.05 0.13 0.03
0.00 0.00 0.00 0.00 0.00 0.00 0.00 0.00 0.00 0.00 0.00 0.00 0.00 0.00 0.00 0.00 0.00 0.00 0.00 0.00 0.00 0.00 0.00 0.00 0.00 0.00 0.00 0.00 0.00 0.00 0.00 0.00 0.00 0.00 0.00 0.00 0.00 0.00 0.00 0.01 0.05 0.06 0.17 0.09
0.00 0.00 0.00 0.00 0.00 0.00 0.00 0.00 0.00 0.00 0.00 0.00 0.00 0.00 0.00 0.00 0.00 0.00 0.00 0.00 0.00 0.00 0.00 0.00 0.00 0.00 0.00 0.00 0.00 0.00 0.00 0.00 0.00 0.00 0.00 0.00 0.01 0.00 0.01 0.06 0.21 0.24 0.19 0.22
0.00 0.00 0.00 0.00 0.00 0.00 0.00 0.00 0.00 0.00 0.00 0.00 0.00 0.00 0.00 0.00 0.00 0.00 0.00 0.00 0.00 0.00 0.00 0.00 0.00 0.00 0.00 0.00 0.00 0.00 0.00 0.00 0.00 0.00 0.00 0.02 0.01 0.00 0.02 0.10 0.22 0.31 0.30 0.35
0.00 0.00 0.00 0.00 0.00 0.00 0.00 0.00 0.00 0.00 0.00 0.00 0.00 0.00 0.00 0.00 0.00 0.00 0.00 0.00 0.00 0.00 0.00 0.00 0.00 0.00 0.00 0.00 0.00 0.00 0.00 0.00 0.00 0.00 0.01 0.03 0.02 0.01 0.02 0.07 0.16 0.65 0.71 0.81
0.00 0.00 0.00 0.00 0.00 0.00 0.00 0.00 0.00 0.00 0.00 0.00 0.00 0.00 0.00 0.00 0.00 0.00 0.00 0.00 0.00 0.00 0.00 0.00 0.00 0.00 0.00 0.01 0.01 0.01 0.00 0.01 0.01 0.01 0.03 0.06 0.06 0.04 0.03 0.12 0.11 0.60 1.06 1.06
0.00 0.00 0.00 0.00 0.00 0.00 0.00 0.00 0.00 0.00 0.00 0.00 0.00 0.00 0.00 0.00 0.00 0.00 0.00 0.00 0.00 0.00 0.00 0.00 0.00 0.00 0.01 0.02 0.02 0.02 0.03 0.09 0.11 0.06 0.07 0.08 0.10 0.08 0.05 0.07 0.27 0.29 0.32 0.65
0.00 0.00 0.00 0.00 0.00 0.00 0.00 0.00 0.00 0.00 0.00 0.00 0.00 0.01 0.00 0.00 0.00 0.00 0.00 0.00 0.00 0.00 0.00 0.00 0.00 0.01 0.02 0.05 0.03 0.07 0.19 0.38 0.27 0.19 0.19 0.21 0.17 0.14 0.09 0.02 0.09 0.27 0.45 0.46
0.00 0.00 0.00 0.00 0.00 0.00 0.00 0.00 0.00 0.00 0.00 0.00 0.00 0.00 0.00 0.00 0.00 0.00 0.00 0.00 0.00 0.00 0.01 0.00 0.00 0.01 0.04 0.07 0.05 0.07 0.27 0.61 0.76 0.49 0.30 0.45 0.24 0.30 0.11 0.02 0.02 0.11 0.21 0.37
0.00 0.00 0.00 0.00 0.00 0.00 0.00 0.00 0.00 0.02 0.01 0.01 0.01 0.02 0.00 0.00 0.00 0.00 0.00 0.00 0.00 0.00 0.01 0.00 0.01 0.01 0.01 0.04 0.13 0.12 0.16 0.19 0.80 0.85 0.56 0.40 0.18 0.13 0.13 0.06 0.03 0.05 0.09 0.10
0.00 0.00 0.00 0.00 0.00 0.00 0.00 0.00 0.00 0.01 0.01 0.01 0.01 0.01 0.00 0.00 0.00 0.00 0.00 0.00 0.00 0.00 0.00 0.00 0.00 0.01 0.03 0.03 0.13 0.21 0.26 0.25 0.26 0.36 0.47 0.23 0.10 0.02 0.01 0.11 0.13 0.04 0.08 0.07
0.01 0.01 0.00 0.05 0.04 0.01 0.00 0.00 0.00 0.00 0.00 0.00 0.01 0.00 0.00 0.00 0.00 0.00 0.00 0.00 0.00 0.00 0.00 0.00 0.00 0.00 0.02 0.03 0.04 0.14 0.26 0.30 0.23 0.22 0.17 0.33 0.17 0.01 0.00 0.00 0.07 0.06 0.02 0.07
0.00 0.01 0.00 0.00 0.00 0.00 0.00 0.00 0.00 0.00 0.00 0.01 0.00 0.00 0.00 0.00 0.00 0.00 0.00 0.00 0.00 0.00 0.00 0.00 0.00 0.00 0.00 0.00 0.00 0.01 0.01 0.10 0.19 0.19 0.17 0.12 0.09 0.02 0.00 0.00 0.00 0.00 0.00 0.00
0.00 0.00 0.00 0.00 0.00 0.00 0.00 0.00 0.00 0.00 0.00 0.00 0.00 0.00 0.00 0.00 0.00 0.00 0.00 0.00 0.00 0.00 0.00 0.00 0.00 0.00 0.00 0.00 0.00 0.01 0.01 0.00 0.01 0.01 0.05 0.09 0.03 0.02 0.00 0.00 0.00 0.00 0.00 0.00
0.00 0.00 0.00 0.00 0.00 0.00 0.01 0.00 0.00 0.00 0.00 0.00 0.00 0.00 0.00 0.00 0.00 0.00 0.00 0.00 0.00 0.00 0.00 0.00 0.00 0.00 0.00 0.00 0.00 0.00 0.00 0.01 0.01 0.01 0.00 0.00 0.01 0.01 0.01 0.00 0.00 0.00 0.00 0.00
0.01 0.01 0.03 0.01 0.01 0.02 0.00 0.00 0.00 0.00 0.00 0.00 0.00 0.00 0.00 0.00 0.00 0.00 0.00 0.00 0.00 0.00 0.00 0.00 0.00 0.00 0.00 0.00 0.00 0.00 0.00 0.00 0.00 0.00 0.00 0.00 0.00 0.00 0.00 0.00 0.00 0.00 0.00 0.00
0.02 0.03 0.02 0.01 0.02 0.01 0.00 0.00 0.00 0.00 0.00 0.00 0.00 0.00 0.00 0.00 0.00 0.00 0.00 0.00 0.00 0.00 0.00 0.00 0.00 0.00 0.00 0.00 0.00 0.00 0.00 0.00 0.00 0.00 0.00 0.00 0.00 0.00 0.00 0.00 0.00 0.00 0.00 0.00
0.00 0.00 0.00 0.01 0.03 0.03 0.00 0.00 0.00 0.00 0.00 0.00 0.00 0.00 0.00 0.00 0.00 0.00 0.00 0.00 0.00 0.00 0.00 0.00 0.00 0.00 0.00 0.00 0.00 0.00 0.00 0.00 0.00 0.00 0.00 0.00 0.00 0.00 0.00 0.00 0.00 0.00 0.00 0.00
0.00 0.00 0.00 0.00 0.01 0.02 0.00 0.00 0.00 0.00 0.00 0.00 0.00 0.00 0.00 0.00 0.00 0.00 0.00 0.00 0.00 0.00 0.00 0.00 0.00 0.00 0.00 0.00 0.00 0.00 0.00 0.00 0.00 0.00 0.00 0.00 0.00 0.00 0.00 0.00 0.00 0.00 0.00 0.00
0.00 0.00 0.00 0.00 0.01 0.01 0.00 0.00 0.00 0.00 0.00 0.00 0.00 0.00 0.00 0.00 0.00 0.00 0.00 0.00 0.00 0.00 0.00 0.00 0.00 0.00 0.00 0.00 0.00 0.00 0.00 0.00 0.00 0.00 0.00 0.00 0.00 0.00 0.00 0.00 0.00 0.00 0.00 0.00
0.00 0.00 0.00 0.00 0.00 0.00 0.00 0.00 0.00 0.00 0.00 0.00 0.00 0.00 0.00 0.00 0.00 0.00 0.00 0.00 0.00 0.00 0.00 0.00 0.00 0.00 0.00 0.00 0.00 0.00 0.00 0.00 0.00 0.00 0.00 0.00 0.00 0.00 0.00 0.00 0.00 0.00 0.00 0.00
0.00 0.00 0.00 0.00 0.00 0.00 0.00 0.00 0.00 0.00 0.00 0.00 0.00 0.00 0.00 0.00 0.00 0.00 0.00 0.00 0.00 0.00 0.00 0.00 0.00 0.00 0.00 0.00 0.00 0.00 0.00 0.00 0.00 0.00 0.00 0.00 0.00 0.00 0.00 0.00 0.00 0.00 0.00 0.00
0.00 0.00 0.00 0.00 0.00 0.00 0.00 0.00 0.00 0.00 0.00 0.00 0.00 0.00 0.00 0.00 0.00 0.00 0.00 0.00 0.00 0.00 0.00 0.00 0.00 0.00 0.00 0.00 0.00 0.00 0.00 0.00 0.00 0.00 0.00 0.00 0.00 0.00 0.00 0.00 0.00 0.00 0.00 0.00
0.00 0.00 0.00 0.00 0.00 0.00 0.00 0.00 0.00 0.00 0.00 0.00 0.00 0.00 0.00 0.00 0.00 0.00 0.00 0.00 0.00 0.00 0.00 0.00 0.00 0.00 0.00 0.00 0.00 0.00 0.00 0.00 0.00 0.00 0.00 0.00 0.00 0.00 0.00 0.00 0.00 0.00 0.00 0.00
MSLP
1014.92 1015.35 1014.87 1014.36 1014.40 1014.13 1013.89 1013.96 1013.56 1012.67 1012.07 1012.10 1012.58 1013.32 1014.11 1015.76 1016.69 1017.88 1018.90 1019.68 1020.49 1020.81 1021.01 1020.84 1020.58 1020.19 1019.62 1019.43 1018.97 1018.18 1017.43 1016.35 1015.71 1014.60 1013.71 1012.59 1011.35 1010.02 1009.12 1008.37 1006.96 1006.90 1006.83 1006.88
1015.07 1014.34 1013.56 1013.47 1013.52 1013.43 1013.71 1013.62 1013.49 1013.10 1012.54 1012.90 1013.49 1014.39 1015.90 1016.93 1018.32 1019.35 1020.28 1021.24 1021.77 1021.77 1021.45 1021.44 1021.39 1021.05 1020.53 1019.77 1019.20 1018.59 1017.97 1016.95 1015.88 1015.05 1014.08 1013.25 1011.95 1010.24 1009.38 1008.93 1007.99 1006.79 1007.01 1006.13
1014.16 1013.27 1012.15 1012.71 1012.87 1012.99 1013.07 1013.30 1013.52 1013.70 1013.48 1013.48 1014.30 1015.23 1016.94 1018.42 1019.35 1020.53 1021.67 1022.45 1022.91 1023.11 1023.03 1022.60 1021.97 1021.55 1021.16 1020.25 1019.70 1019.18 1018.36 1017.17 1015.95 1014.81 1013.63 1012.65 1011.68 1010.39 1008.85 1008.14 1007.54 1006.50 1005.83 1005.52
1013.23 1012.44 1012.05 1012.04 1012.14 1012.63 1012.82 1013.00 1013.44 1013.91 1014.53 1015.15 1014.92 1016.90 1017.34 1018.96 1020.39 1021.62 1022.59 1023.26 1023.70 1024.14 1023.78 1023.12 1022.62 1022.29 1021.85 1021.14 1020.49 1019.71 1018.52 1017.20 1015.91 1014.36 1013.28 1012.65 1011.60 1010.26 1009.10 1007.91 1006.92 1006.42 1004.87 1004.68
1012.42 1011.78 1011.53 1011.49 1011.60 1012.14 1012.62 1013.16 1013.84 1014.54 1015.31 1015.76 1015.84 1017.36 1018.01 1019.45 1020.92 1022.28 1023.30 1023.76 1024.46 1024.50 1024.16 1023.72 1023.43 1022.97 1022.40 1021.58 1020.59 1019.41 1018.28 1017.07 1015.75 1014.09 1013.13 1012.13 1011.00 1009.73 1008.75 1007.56 1006.34 1005.11 1004.42 1003.69
1012.81 1012.01 1011.70 1011.38 1011.65 1011.75 1012.45 1013.52 1014.22 1014.79 1015.74 1016.12 1015.06 1017.15 1019.20 1020.99 1022.33 1023.20 1023.98 1024.45 1024.96 1024.87 1024.80 1024.50 1024.00 1023.42 1022.93 1021.68 1020.66 1019.52 1018.25 1016.93 1015.54 1014.38 1012.74 1011.78 1010.50 1009.39 1008.34 1006.83 1005.59 1004.37 1004.40 1003.41
1012.51 1011.69 1011.37 1011.39 1011.77 1012.06 1012.81 1014.36 1015.25 1015.39 1016.02 1015.68 1015.25 1017.22 1020.35 1022.07 1023.26 1024.15 1024.91 1025.33 1025.34 1025.45 1025.34 1024.94 1024.26 1023.86 1022.86 1021.85 1020.88 1019.78 1018.41 1016.96 1015.76 1014.45 1012.43 1011.27 1010.25 1009.23 1007.61 1006.30 1005.03 1004.52 1005.55 1004.50
1012.72 1011.60 1010.89 1010.63 1011.35 1011.60 1012.62 1014.01 1014.99 1015.37 1015.73 1015.99 1016.59 1018.86 1021.26 1022.87 1023.96 1024.76 1025.49 1025.91 1025.89 1026.03 1025.93 1025.61 1024.99 1024.38 1023.30 1022.43 1021.26 1020.07 1018.81 1017.51 1016.03 1014.51 1012.48 1011.08 1010.43 1009.37 1008.27 1006.83 1005.51 1006.29 1006.53 1005.68
1012.79 1011.37 1010.25 1009.84 1010.98 1011.61 1012.03 1013.23 1013.91 1015.08 1015.89 1016.89 1018.11 1020.48 1022.24 1023.17 1024.01 1025.02 1025.60 1026.03 1026.29 1026.56 1026.30 1025.97 1025.43 1024.70 1023.97 1022.82 1021.62 1020.54 1019.04 1017.70 1016.18 1014.52 1012.88 1011.67 1010.99 1009.85 1009.34 1007.62 1005.56 1006.87 1007.55 1007.36
1013.28 1012.95 1011.49 1010.79 1011.10 1011.31 1011.85 1012.94 1014.14 1015.33 1016.72 1017.64 1018.67 1020.37 1021.69 1023.12 1024.31 1025.07 1025.81 1026.45 1026.72 1026.79 1026.73 1026.30 1025.92 1025.26 1024.32 1023.31 1022.04 1020.80 1019.14 1017.92 1016.70 1015.28 1013.89 1012.98 1012.05 1010.99 1010.46 1008.31 1005.35 1007.46 1008.81 1008.10
1012.99 1013.89 1012.84 1011.85 1011.35 1011.59 1012.34 1013.07 1014.28 1015.53 1017.03 1018.31 1019.70 1021.34 1022.39 1023.61 1024.72 1025.50 1026.33 1026.83 1026.94 1027.03 1026.94 1027.00 1026.39 1025.66 1024.75 1023.67 1022.46 1021.30 1019.42 1018.13 1017.43 1016.36 1015.11 1014.38 1013.62 1012.14 1010.83 1008.40 1007.45 1008.51 1009.29 1008.51
1013.21 1013.83 1014.34 1013.23 1011.87 1011.80 1012.34 1013.25 1014.39 1015.87 1017.45 1018.45 1019.86 1021.72 1023.01 1023.99 1024.78 1025.51 1026.44 1026.93 1027.02 1027.22 1027.24 1027.23 1026.75 1025.90 1025.00 1024.04 1022.90 1021.85 1020.36 1019.61 1018.83 1017.26 1016.80 1015.52 1014.94 1012.49 1010.05 1010.24 1010.21 1011.10 1012.69 1011.88
1013.45 1014.44 1014.92 1014.00 1013.37 1012.79 1013.09 1014.09 1015.15 1016.28 1017.94 1019.26 1020.74 1022.07 1023.15 1024.10 1024.98 1025.63 1026.46 1026.96 1027.10 1027.17 1027.22 1027.22 1026.61 1025.93 1025.29 1024.52 1023.57 1022.61 1021.96 1021.27 1020.43 1019.50 1018.23 1016.97 1015.57 1012.97 1012.05 1012.20 1012.00 1012.39 1013.41 1012.82
1013.78 1014.99 1015.25 1015.61 1015.49 1015.44 1015.04 1015.52 1016.41 1017.32 1018.78 1019.13 1020.14 1021.93 1023.24 1024.11 1024.96 1025.79 1026.52 1026.95 1027.14 1027.14 1027.22 1027.15 1026.66 1026.00 1025.59 1025.04 1024.21 1023.33 1022.78 1022.30 1021.86 1020.70 1019.31 1017.68 1015.76 1015.67 1014.69 1014.49 1014.38 1013.55 1015.12 1014.31
1014.74 1015.82 1015.88 1016.09 1016.26 1016.59 1016.91 1017.12 1017.77 1018.28 1018.69 1019.63 1020.30 1021.38 1022.75 1023.93 1025.07 1025.88 1026.51 1026.91 1027.08 1027.10 1027.26 1027.21 1026.97 1026.40 1025.72 1025.22 1024.54 1023.95 1023.26 1022.61 1022.07 1021.13 1020.01 1019.09 1018.34 1017.92 1017.01 1016.74 1016.73 1017.03 1016.90 1016.16
1014.97 1015.60 1016.35 1016.95 1016.87 1017.07 1017.83 1018.06 1018.47 1018.57 1018.94 1019.59 1020.54 1021.92 1022.85 1024.35 1025.34 1026.00 1026.58 1026.90 1027.07 1027.17 1027.36 1027.43 1027.30 1026.83 1026.18 1025.64 1025.10 1024.77 1024.21 1023.52 1023.09 1022.06 1021.60 1021.13 1020.40 1019.45 1018.95 1018.45 1017.98 1017.92 1018.13 1018.46
1014.79 1015.50 1016.43 1016.83 1016.69 1017.34 1017.97 1017.53 1017.92 1018.04 1018.43 1019.13 1020.48 1021.38 1023.11 1024.34 1025.26 1026.20 1026.70 1026.94 1026.94 1027.20 1027.43 1027.59 1027.43 1027.21 1026.74 1026.21 1025.78 1025.15 1024.74 1024.41 1023.90 1023.47 1022.90 1022.47 1021.91 1021.23 1021.11 1020.75 1020.07 1020.14 1020.13 1020.67
1014.09 1015.05 1015.82 1016.46 1017.06 1017.53 1017.03 1016.83 1017.13 1017.64 1018.49 1019.43 1020.17 1021.55 1023.01 1024.19 1025.50 1026.52 1026.90 1027.09 1027.09 1027.09 1027.28 1027.66 1027.56 1027.40 1026.98 1026.62 1026.35 1025.82 1025.33 1025.04 1024.53 1024.07 1023.82 1023.43 1022.95 1022.64 1022.70 1022.13 1021.66 1021.72 1022.22 1022.55
1013.83 1014.65 1015.46 1015.98 1016.72 1016.91 1016.71 1016.43 1016.59 1017.29 1018.43 1019.28 1020.31 1021.80 1023.28 1024.72 1026.03 1026.92 1027.14 1027.26 1027.16 1026.91 1026.89 1027.38 1027.45 1027.39 1027.19 1026.92 1026.67 1026.41 1026.01 1025.59 1025.22 1024.87 1024.76 1024.57 1024.32 1023.99 1023.58 1023.27 1023.23 1023.25 1023.44 1023.31
1013.60 1014.21 1015.74 1015.85 1016.36 1016.31 1015.76 1015.59 1016.13 1016.98 1017.88 1018.43 1019.81 1021.53 1022.98 1024.67 1025.71 1026.36 1026.95 1027.22 1027.13 1026.87 1026.74 1027.14 1027.33 1027.47 1027.42 1027.36 1027.10 1026.83 1026.67 1026.34 1026.04 1025.79 1025.57 1025.45 1025.25 1025.03 1024.62 1024.53 1024.03 1024.04 1024.03 1023.97
1013.37 1014.39 1015.44 1016.22 1016.67 1016.58 1015.77 1015.84 1016.07 1017.62 1018.10 1018.24 1019.55 1021.11 1022.53 1024.02 1024.98 1025.72 1026.72 1027.06 1027.01 1026.86 1026.79 1026.98 1027.46 1027.74 1027.74 1027.57 1027.45 1027.24 1026.96 1026.79 1026.71 1026.40 1026.08 1025.79 1025.70 1025.71 1025.79 1025.80 1025.55 1025.47 1025.44 1025.46
1013.13 1014.52 1015.58 1016.42 1016.93 1017.16 1016.37 1016.52 1017.12 1017.53 1017.66 1018.42 1019.52 1020.73 1022.33 1023.92 1025.23 1026.09 1026.72 1026.83 1026.75 1026.76 1026.88 1027.13 1027.59 1027.86 1028.02 1027.95 1027.79 1027.68 1027.34 1027.13 1027.01 1026.87 1026.71 1026.59 1026.62 1026.60 1026.84 1026.89 1026.85 1026.66 1026.39 1026.18
1013.35 1013.93 1015.48 1016.88 1017.31 1017.40 1017.04 1017.05 1017.23 1017.61 1018.37 1019.26 1019.86 1021.01 1022.17 1023.79 1024.93 1025.84 1026.37 1026.48 1026.46 1026.80 1027.14 1027.40 1027.78 1028.16 1028.24 1028.33 1028.18 1028.06 1028.07 1027.63 1027.51 1027.50 1027.44 1027.35 1027.22 1027.17 1027.09 1027.12 1027.09 1026.95 1027.04 1027.11
1013.37 1014.01 1015.70 1016.98 1017.83 1017.80 1017.73 1017.46 1017.52 1017.96 1019.05 1019.79 1020.58 1021.59 1022.65 1023.67 1024.73 1025.31 1025.65 1025.91 1026.42 1026.91 1027.36 1027.65 1028.18 1028.71 1028.76 1028.96 1028.86 1028.66 1028.65 1028.47 1028.34 1028.23 1028.23 1028.14 1028.03 1027.87 1027.87 1027.82 1027.91 1027.85 1027.93 1027.80
1013.33 1014.43 1016.20 1017.46 1017.92 1018.17 1018.18 1018.07 1018.23 1018.85 1019.51 1020.21 1021.06 1021.84 1022.76 1023.60 1024.37 1024.86 1025.33 1025.93 1026.55 1027.17 1027.59 1028.07 1028.67 1029.11 1029.41 1029.73 1029.70 1029.58 1029.37 1029.21 1028.97 1028.96 1028.85 1028.75 1028.57 1028.43 1028.31 1028.14 1027.94 1027.95 1028.12 1028.01
1013.40 1014.69 1015.79 1016.47 1016.79 1017.44 1017.99 1018.36 1018.78 1019.38 1019.92 1020.49 1021.02 1021.91 1022.77 1023.47 1024.06 1024.73 1025.51 1026.17 1026.83 1027.52 1028.01 1028.59 1029.14 1029.64 1029.93 1030.53 1030.59 1030.44 1030.14 1029.95 1029.90 1029.75 1029.80 1029.72 1029.35 1029.12 1028.96 1028.70 1028.38 1027.90 1027.88 1028.03
Thickness
5618 5605 5604 5612 5617 5625 5625 5618 5615 5623 5636 5634 5625 5619 5612 5595 5591 5582 5574 5568 5554 5549 5545 5543 5542 5540 5541 5542 5544 5549 5556 5565 5574 5584 5596 5609 5625 5643 5657 5669 5687 5685 5687 5697
5600 5602 5621 5628 5628 5623 5615 5611 5609 5618 5628 5619 5608 5602 5581 5581 5571 5562 5552 5537 5529 5526 5525 5520 5514 5512 5512 5515 5516 5517 5520 5529 5540 5555 5567 5581 5599 5624 5638 5646 5661 5676 5678 5691
5594 5611 5629 5623 5616 5612 5611 5604 5602 5604 5608 5608 5597 5586 5566 5564 5558 5546 5530 5520 5510 5502 5497 5495 5497 5495 5494 5498 5498 5498 5500 5507 5513 5525 5542 5558 5579 5602 5624 5638 5649 5667 5683 5684
5595 5613 5615 5609 5608 5606 5593 5608 5603 5598 5586 5570 5584 5551 5563 5552 5535 5522 5509 5497 5488 5480 5480 5482 5482 5479 5476 5477 5476 5477 5484 5492 5500 5510 5520 5530 5551 5578 5602 5622 5639 5652 5675 5682
5591 5601 5601 5600 5603 5604 5593 5598 5592 5585 5572 5567 5571 5553 5549 5546 5521 5507 5494 5490 5478 5472 5469 5469 5467 5464 5463 5462 5463 5468 5473 5478 5485 5495 5502 5514 5531 5561 5583 5605 5628 5648 5661 5679
5578 5597 5593 5596 5600 5597 5595 5583 5578 5573 5562 5541 5579 5560 5530 5497 5499 5493 5486 5481 5470 5464 5459 5455 5455 5451 5448 5450 5453 5454 5458 5461 5466 5473 5483 5496 5515 5539 5564 5594 5619 5640 5645 5667
5568 5579 5587 5591 5580 5582 5578 5558 5529 5537 5531 5550 5585 5554 5505 5498 5485 5479 5469 5464 5460 5453 5446 5444 5444 5439 5439 5440 5441 5443 5445 5446 5445 5449 5466 5479 5498 5517 5549 5579 5608 5622 5620 5641
5545 5547 5575 5589 5577 5572 5561 5553 5531 5539 5541 5547 5564 5530 5501 5484 5477 5469 5459 5452 5449 5441 5434 5431 5430 5426 5427 5428 5431 5433 5433 5436 5436 5438 5451 5467 5478 5497 5521 5551 5583 5590 5600 5617
5538 5557 5579 5586 5577 5571 5561 5550 5563 5545 5548 5531 5526 5504 5490 5488 5473 5459 5452 5446 5438 5428 5425 5421 5418 5416 5414 5419 5422 5425 5427 5428 5430 5432 5444 5454 5464 5480 5497 5531 5566 5572 5576 5593
5536 5527 5558 5569 5569 5567 5560 5560 5532 5530 5524 5524 5514 5504 5483 5476 5464 5456 5444 5434 5430 5423 5412 5411 5408 5406 5407 5410 5415 5419 5424 5421 5419 5424 5434 5438 5450 5464 5479 5512 5553 5556 5556 5574
5536 5520 5533 5552 5550 5551 5545 5541 5540 5536 5522 5500 5470 5489 5480 5451 5454 5442 5435 5429 5424 5418 5409 5401 5400 5399 5400 5403 5408 5414 5421 5422 5415 5418 5421 5429 5441 5459 5473 5508 5531 5538 5543 5564
5528 5504 5505 5529 5552 5555 5550 5544 5540 5506 5519 5518 5497 5476 5464 5449 5449 5441 5431 5425 5421 5414 5406 5397 5395 5394 5395 5399 5403 5408 5414 5414 5410 5413 5422 5436 5442 5456 5483 5495 5507 5513 5505 5520
5519 5498 5500 5518 5528 5543 5542 5536 5532 5520 5499 5496 5486 5460 5457 5452 5440 5435 5426 5420 5416 5411 5404 5396 5394 5392 5393 5394 5397 5403 5405 5405 5410 5416 5426 5434 5441 5462 5474 5483 5493 5502 5499 5515
5511 5502 5501 5494 5493 5506 5519 5519 5512 5507 5466 5471 5476 5456 5447 5446 5438 5429 5419 5417 5413 5403 5401 5398 5395 5395 5392 5390 5393 5398 5401 5401 5403 5411 5422 5434 5444 5446 5457 5469 5475 5493 5485 5497
5492 5477 5481 5502 5505 5499 5485 5494 5487 5489 5487 5479 5454 5451 5450 5440 5429 5421 5417 5413 5411 5409 5401 5396 5395 5395 5396 5393 5394 5395 5400 5403 5405 5411 5419 5426 5432 5434 5444 5450 5457 5459 5466 5479
5489 5479 5459 5454 5488 5498 5455 5455 5452 5466 5485 5473 5462 5445 5443 5428 5420 5416 5411 5410 5406 5406 5400 5395 5391 5393 5394 5394 5394 5393 5394 5397 5399 5406 5407 5411 5417 5423 5429 5437 5445 5450 5454 5457
5484 5484 5474 5480 5478 5492 5489 5459 5465 5483 5487 5485 5457 5450 5431 5425 5418 5410 5405 5405 5405 5402 5397 5391 5388 5386 5388 5389 5390 5391 5392 5392 5393 5395 5399 5402 5406 5410 5411 5416 5426 5429 5434 5433
5491 5489 5491 5473 5475 5479 5472 5483 5481 5483 5471 5455 5446 5436 5431 5422 5407 5400 5399 5398 5399 5400 5396 5388 5383 5383 5385 5385 5384 5386 5388 5387 5390 5392 5393 5396 5398 5400 5400 5407 5412 5415 5413 5413
5490 5489 5474 5475 5477 5469 5474 5483 5480 5465 5462 5454 5445 5434 5420 5410 5399 5393 5393 5392 5391 5398 5396 5389 5386 5382 5384 5384 5384 5384 5384 5385 5387 5388 5389 5389 5392 5395 5399 5402 5403 5404 5402 5405
5491 5489 5474 5474 5483 5476 5482 5486 5484 5478 5456 5460 5449 5430 5419 5408 5408 5398 5389 5388 5388 5392 5394 5389 5386 5383 5380 5379 5379 5381 5380 5381 5383 5384 5386 5387 5389 5390 5395 5395 5400 5400 5399 5399
5482 5480 5470 5460 5467 5470 5486 5479 5480 5451 5446 5456 5444 5430 5421 5412 5401 5390 5383 5381 5381 5385 5389 5387 5381 5377 5376 5376 5376 5376 5377 5377 5379 5382 5384 5386 5386 5385 5383 5383 5384 5385 5385 5385
5481 5465 5459 5463 5471 5468 5470 5466 5454 5444 5451 5447 5440 5430 5418 5393 5385 5380 5376 5375 5378 5383 5382 5380 5376 5372 5371 5371 5372 5371 5373 5375 5374 5374 5375 5375 5374 5374 5370 5368 5368 5368 5369 5369
5473 5486 5462 5453 5449 5444 5449 5447 5447 5441 5432 5425 5419 5412 5402 5390 5381 5374 5370 5373 5379 5376 5373 5373 5370 5367 5367 5365 5366 5366 5365 5368 5367 5366 5365 5364 5363 5362 5361 5360 5358 5358 5354 5351
5483 5481 5443 5442 5438 5436 5438 5443 5441 5433 5419 5414 5407 5400 5393 5384 5377 5374 5375 5375 5372 5368 5365 5363 5361 5358 5358 5356 5357 5358 5356 5357 5357 5357 5355 5355 5355 5355 5353 5351 5346 5344 5341 5338
5476 5465 5442 5429 5431 5431 5431 5431 5425 5417 5412 5406 5398 5393 5385 5380 5375 5374 5372 5368 5364 5360 5358 5354 5351 5349 5348 5345 5345 5346 5347 5346 5346 5345 5345 5344 5343 5342 5341 5340 5337 5334 5330 5327
5476 5452 5430 5417 5430 5424 5418 5420 5413 5405 5402 5400 5396 5388 5382 5378 5375 5371 5364 5360 5356 5351 5349 5346 5343 5340 5339 5334 5333 5333 5335 5335 5334 5334 5331 5329 5330 5329 5327 5325 5323 5322 5319 5315